SCP
0 0 0 0 0 0 0 0 0 0 0 0 0 0 0 0 0 0 0 0 0 0 0 0 0 0 0 0 0 0 0 0 0 4 4 4 5 6 3 3 1 2 1 1
0 0 0 0 0 0 0 0 0 0 0 0 -0 -0 -0 0 0 0 0 0 0 0 0 0 0 0 0 0 0 0 0 0 0 2 4 4 5 5 4 3 2 2 2 2
0 0 0 0 0 0 0 0 0 0 0 -0 -0 0 0 0 0 0 0 0 0 0 0 0 0 0 0 0 0 0 0 0 0 1 3 4 6 5 4 3 3 2 2 2
0 0 0 0 0 0 0 0 0 0 0 0 0 0 0 0 0 0 0 0 -0 0 0 0 0 0 0 0 0 0 0 0 0 0 0 4 4 5 4 4 3 2 2 2
0 0 0 0 0 0 0 0 0 -0 -0 0 -0 0 0 0 0 0 -0 -0 0 -0 -0 0 0 0 0 0 0 0 0 0 0 0 0 7 3 6 5 5 4 4 3 2
0 0 0 0 0 0 0 0 -0 0 0 0 0 0 0 0 0 -0 0 0 0 0 0 0 0 0 0 0 0 0 0 0 0 0 0 1 4 4 5 6 6 10 7 5
0 0 0 0 0 0 0 -0 0 0 0 0 0 0 0 0 0 0 -0 0 0 -0 0 0 0 0 0 0 0 0 0 0 0 0 0 0 0 0 0 0 -0 5 2 2
0 0 0 0 0 0 0 0 0 0 0 0 0 0 0 0 0 0 0 0 0 0 0 -0 -0 -0 -0 -0 0 0 0 0 0 0 0 0 0 0 0 0 0 0 0 1
0 0 0 0 0 0 0 0 0 0 0 0 0 0 0 0 0 0 0 0 0 -0 0 -0 -0 -0 0 -0 -0 0 0 0 0 0 0 0 0 0 0 0 0 0 0 0
0 0 0 0 0 0 0 0 0 0 0 0 0 0 0 0 -0 0 0 0 0 0 -0 -0 -0 -0 -0 -0 -0 -0 -0 0 0 0 0 0 0 0 0 0 0 0 0 0
0 0 0 0 0 0 0 0 0 0 0 0 -0 0 0 0 -0 0 0 0 0 -0 -0 -0 -0 -0 -0 -0 -0 -0 -0 0 0 0 0 0 0 0 0 0 0 0 0 0
0 0 0 0 0 0 0 0 0 0 0 0 0 0 0 0 0 0 0 -0 0 0 0 -0 -0 -0 -0 -0 -0 -0 0 0 0 0 0 0 0 0 0 0 0 0 0 0
0 0 0 0 0 0 0 0 0 0 0 -0 0 0 0 0 0 0 0 -0 0 -0 -0 -0 -0 -0 -0 -0 -0 -0 -0 0 0 0 0 0 0 0 0 0 0 0 0 0
0 0 0 0 0 0 0 0 0 0 0 0 0 0 0 0 0 -0 -0 0 0 0 -0 -0 -0 -0 -0 0 -0 0 -0 -0 0 0 0 0 0 0 0 0 0 0 0 0
0 0 0 0 0 0 0 0 0 0 0 0 0 0 -0 0 -0 -0 -0 -0 -0 -0 -0 -0 -0 -0 -0 -0 0 0 0 0 0 0 0 0 0 0 0 0 0 0 0 0
0 0 0 0 0 0 0 0 0 0 0 0 0 0 0 0 0 0 -0 -0 -0 0 0 -0 -0 -0 -0 -0 -0 -0 0 0 0 0 0 0 0 0 0 0 0 0 0 0
0 0 0 0 0 0 0 0 0 0 0 0 0 0 0 0 0 -0 -0 -0 -0 0 -0 -0 -0 -0 -0 -0 -0 -0 -0 -0 -0 -0 -0 -0 -0 -0 -0 0 0 0 0 0
0 0 0 0 0 0 0 0 0 0 0 0 -0 -0 0 0 0 0 0 0 0 -0 -0 -0 0 -0 -0 -0 -0 -0 -0 -0 -0 -0 -0 -0 -0 -0 -0 -0 0 0 0 0
0 0 0 0 0 0 0 0 0 0 0 0 0 0 0 0 0 0 0 0 0 0 0 0 -0 -0 -0 -0 -0 -0 -0 -0 -0 -0 -0 -0 -0 -0 -0 -0 -0 0 0 0
0 0 0 0 0 0 0 0 0 0 0 0 0 0 0 0 0 0 -0 -0 -0 -0 -0 -0 0 0 0 -0 -0 -0 -0 -0 -0 -0 -0 -0 -0 -0 -0 -0 0 0 0 0
0 0 0 0 0 0 0 0 0 0 0 0 0 0 0 0 0 0 0 0 -0 -0 -0 0 -0 -0 -0 -0 -0 -0 -0 0 0 0 0 0 0 -0 0 0 0 0 0 0
0 0 0 0 0 0 0 0 0 0 0 0 0 0 0 0 -0 0 0 0 0 0 -0 -0 -0 -0 -0 -0 -0 -0 -0 0 0 0 0 0 -0 -0 -0 -0 0 0 0 0
0 0 0 0 0 0 0 0 0 0 0 0 0 0 0 0 0 0 0 0 0 -0 -0 -0 -0 0 0 0 0 0 0 0 0 0 0 0 0 0 0 0 0 0 0 0
0 0 0 0 0 0 0 0 0 0 0 0 0 0 0 0 0 0 0 0 0 -0 -0 0 0 0 0 0 0 0 0 0 0 0 0 0 0 0 0 0 -0 -0 -0 -0
0 0 0 0 0 0 0 0 0 0 0 0 0 0 0 0 0 0 0 0 0 0 0 0 0 0 0 0 0 0 0 0 0 0 0 0 -0 -0 -0 -0 -0 -0 -0 -0
0 0 0 0 0 0 0 0 0 0 0 0 0 0 0 0 0 0 0 0 0 0 0 0 0 0 0 0 0 0 0 0 -0 -0 -0 -0 -0 -0 -0 -0 0 0 0 0
Wind_Speed_500mb
14 17 23 21 19 19 23 27 29 29 23 29 35 41 40 45 20 36 38 45 51 56 59 58 65 58 58 51 49 47 50 61 51 71 76 79 78 75 78 69 63 58 57 67
14 27 11 7 10 16 21 27 29 25 15 23 39 42 35 22 27 28 42 47 53 57 59 61 59 59 52 53 49 50 52 59 63 63 71 81 77 79 82 72 75 82 76 70
25 8 3 12 14 18 20 24 27 31 29 38 38 36 26 7 37 41 47 50 54 59 63 64 61 58 54 53 46 53 54 51 66 52 68 82 78 74 74 70 67 68 70 72
20 11 12 16 15 11 19 16 24 25 23 19 21 29 16 22 28 39 50 56 58 59 59 58 56 56 55 51 50 57 45 44 44 60 66 93 85 82 81 72 64 58 61 58
10 18 18 20 8 3 10 18 25 28 28 28 27 15 19 18 31 41 48 54 55 54 53 53 54 53 50 49 51 46 38 36 48 61 59 68 94 77 73 73 66 62 56 55
28 8 11 18 6 10 18 24 29 22 16 16 7 10 13 15 21 32 45 53 54 55 52 50 51 50 47 45 39 33 27 28 47 49 40 75 76 82 70 62 67 61 65 60
29 27 13 16 18 18 13 21 10 11 14 20 15 18 11 19 22 27 35 46 54 56 57 55 58 61 52 50 41 31 22 12 4 37 11 27 49 62 53 57 60 27 27 31
17 14 31 24 17 10 12 11 12 13 15 24 37 6 9 13 26 32 33 40 49 60 61 59 58 64 58 51 46 40 31 20 15 16 9 24 25 24 26 35 46 43 25 29
10 11 16 13 13 10 6 13 13 17 31 20 5 7 6 20 26 30 41 47 56 68 67 65 63 68 66 54 49 48 37 32 26 30 25 18 28 25 30 44 45 53 48 42
6 7 13 12 9 24 23 3 9 11 10 13 6 8 8 25 28 29 31 42 53 62 69 69 71 74 73 63 57 54 55 47 41 39 36 25 21 20 18 11 10 16 28 35
10 7 15 14 18 11 11 17 17 22 18 10 17 8 11 14 19 23 31 39 48 57 61 64 67 73 77 71 68 68 69 70 67 54 50 44 36 36 19 16 13 7 4 4
9 4 8 15 9 4 7 18 23 17 16 13 11 5 10 9 18 27 31 37 42 47 54 57 61 71 79 83 80 77 76 68 72 74 63 53 48 46 42 45 37 36 28 17
17 10 10 17 15 14 7 9 16 18 13 29 12 7 7 13 18 27 32 37 38 43 54 60 64 71 81 83 86 82 78 75 72 67 67 68 66 60 59 54 46 36 33 27
8 8 10 9 9 7 10 19 25 29 12 8 7 15 8 13 17 27 32 34 35 43 49 53 65 65 74 78 84 84 76 75 73 75 75 76 75 77 69 60 54 49 42 40
7 8 2 14 16 10 7 14 20 9 7 6 14 12 9 12 14 22 26 30 36 43 49 53 55 59 68 77 79 84 79 73 73 76 79 77 72 69 64 61 56 50 50 47
12 6 10 14 13 10 12 12 4 16 20 19 23 14 9 11 12 20 26 28 33 36 40 43 46 50 57 62 69 72 77 76 70 75 71 66 66 63 60 53 58 58 57 56
15 10 11 6 22 16 11 6 12 13 14 7 7 14 17 12 15 18 21 25 30 34 37 41 44 47 52 60 60 66 64 66 69 65 68 66 60 57 53 51 56 58 57 58
11 12 6 10 17 10 11 13 15 19 13 20 25 19 15 18 16 15 17 18 23 29 33 37 46 42 46 47 50 49 57 65 68 67 66 62 56 55 53 55 58 57 55 57
9 7 7 7 14 13 16 15 14 10 8 5 16 20 21 21 20 21 16 15 17 22 24 28 33 46 37 41 42 48 55 55 60 63 61 59 58 56 55 56 54 54 54 53
11 9 8 7 11 10 20 22 11 7 12 17 20 26 25 23 9 8 8 11 14 18 20 24 27 29 37 38 37 40 46 48 52 55 55 54 55 53 53 51 52 46 46 49
15 15 16 15 12 10 13 24 17 9 9 19 19 20 29 17 11 19 12 12 15 14 18 20 25 30 33 34 36 39 41 49 44 39 47 51 50 49 51 49 48 46 45 46
11 9 8 7 8 8 14 19 7 16 31 27 26 24 32 35 29 21 17 14 12 15 17 19 22 27 31 33 33 37 41 39 37 39 39 43 48 44 50 53 50 51 50 49
6 6 6 10 7 8 7 11 24 25 31 28 31 31 34 35 29 23 20 16 15 15 15 18 20 23 27 31 32 34 37 35 34 36 38 39 42 43 45 50 55 54 57 56
6 3 4 14 9 13 16 17 21 26 27 27 28 30 29 33 29 25 22 17 15 14 16 16 18 22 25 27 30 31 32 33 32 34 37 37 38 39 40 38 43 47 56 54
8 15 13 8 15 19 18 22 25 29 28 28 26 25 27 30 28 25 22 18 15 14 14 16 18 19 21 23 27 30 32 32 31 32 33 36 34 36 37 40 48 46 52 57
15 13 9 3 33 12 33 29 31 33 29 27 28 28 25 26 27 25 21 17 14 12 13 15 16 16 19 20 23 28 31 32 32 30 32 34 33 34 35 36 33 44 55 56
Wind_Direction_500mb
194 264 238 344 347 313 293 288 285 290 304 301 288 293 305 310 338 10 355 348 338 331 326 317 314 313 307 301 299 296 285 259 264 227 225 220 215 208 217 207 212 208 219 222
230 239 52 319 292 282 282 281 280 298 307 285 293 298 297 309 73 33 7 347 338 332 326 320 318 313 310 307 292 296 291 276 244 245 229 225 217 213 219 216 219 217 214 224
254 23 119 275 273 267 269 285 299 307 310 273 263 289 316 302 85 25 0 347 337 333 328 324 321 317 314 310 307 296 292 285 261 252 234 226 217 217 212 214 211 222 219 223
260 122 229 260 260 274 288 3 310 293 296 303 320 299 25 16 23 8 357 348 345 335 330 329 328 323 317 313 302 289 292 287 276 263 246 218 216 212 213 209 211 214 215 216
116 200 225 236 259 311 293 332 299 293 285 295 279 249 84 27 359 355 356 349 349 341 333 336 336 332 329 317 312 299 284 276 256 251 243 223 218 216 213 209 205 204 212 210
264 172 249 244 199 249 296 289 271 258 270 267 179 265 53 20 348 346 356 351 352 350 345 340 342 343 346 335 325 305 294 275 255 246 247 223 223 220 211 209 207 192 202 208
211 217 192 222 232 191 240 268 289 232 216 254 15 305 64 23 18 6 359 354 358 357 353 350 353 358 354 357 350 343 324 334 272 234 242 202 216 218 212 230 306 149 231 220
216 179 194 176 239 300 282 304 287 297 308 320 305 334 94 59 43 11 7 2 7 5 0 357 359 8 360 7 6 18 1 4 64 157 179 94 144 210 211 182 199 241 216 213
200 240 163 179 223 233 118 237 321 294 273 257 186 92 192 42 15 16 8 2 5 3 3 360 2 17 9 14 18 30 23 25 49 86 115 98 100 139 162 190 215 219 234 226
140 237 225 185 236 231 239 323 269 223 264 271 332 161 55 1 356 359 9 4 360 0 1 5 8 21 15 19 27 44 40 33 50 73 84 88 78 78 98 175 198 216 231 239
170 231 140 190 225 194 190 236 234 262 268 272 294 89 22 10 3 3 7 7 3 1 358 3 8 21 24 26 29 47 46 44 46 67 75 80 79 77 73 87 99 80 34 314
186 140 242 234 57 312 274 261 243 237 259 263 279 104 38 44 17 15 11 7 4 2 2 4 9 17 26 21 35 43 47 53 55 59 66 69 70 71 69 58 39 31 27 8
176 192 227 176 168 137 336 325 291 287 298 269 275 100 69 29 32 24 16 12 6 3 5 6 11 14 21 26 31 39 46 50 57 59 58 62 60 60 57 54 52 44 36 23
191 221 292 341 65 359 323 324 310 266 253 319 53 123 76 36 24 20 17 13 11 13 11 8 10 11 15 27 30 31 40 46 53 59 58 58 53 52 52 50 46 45 36 37
210 199 152 129 112 78 43 9 10 27 354 334 130 109 74 41 25 21 18 14 17 18 14 11 9 9 14 23 26 30 35 40 46 54 54 55 55 55 56 51 51 45 45 39
170 170 173 187 204 167 93 35 61 75 92 104 122 102 101 81 54 31 23 21 22 18 15 11 11 15 17 18 26 36 29 39 42 52 47 52 54 52 56 48 50 53 50 50
169 181 195 221 195 208 203 95 93 72 57 154 182 108 145 108 64 36 22 24 21 15 14 15 14 16 18 22 24 30 31 37 43 44 48 47 46 46 44 45 49 46 43 41
186 198 249 160 168 226 105 120 108 107 70 90 105 134 124 112 101 66 43 33 27 19 16 15 16 23 25 27 26 28 37 41 41 43 45 45 41 43 43 46 47 43 40 39
236 281 246 233 218 109 166 190 177 201 126 141 149 152 150 147 135 70 48 42 34 23 23 24 18 17 32 29 29 28 34 37 39 41 42 42 43 43 42 43 44 41 37 37
200 246 268 246 249 216 102 133 145 150 180 169 175 175 174 179 229 98 65 51 46 32 30 31 32 32 26 29 32 32 30 30 36 29 34 36 39 39 39 39 40 40 35 33
211 221 238 257 253 106 127 140 144 205 115 152 161 162 181 185 83 131 107 78 75 40 41 36 35 34 31 30 28 32 30 28 23 31 23 31 31 31 35 35 36 34 33 31
218 218 201 243 250 177 150 149 222 115 130 133 128 129 118 126 125 122 117 83 74 67 53 45 41 37 32 31 31 29 29 23 22 23 28 24 26 27 19 24 27 26 28 26
218 329 13 8 47 114 127 106 127 138 136 137 133 135 136 131 131 130 122 117 97 80 63 52 47 41 36 31 32 28 24 21 20 21 26 24 25 19 18 18 16 20 20 20
144 168 98 181 126 130 130 118 127 136 135 135 136 136 136 132 134 131 125 118 104 85 69 59 51 44 36 30 29 29 21 21 19 22 20 22 18 22 17 18 18 14 17 15
43 165 143 85 147 142 147 142 135 134 136 134 132 134 136 136 135 133 126 119 104 87 68 60 51 42 34 28 26 22 20 19 21 20 18 18 15 15 17 11 9 8 3 6
189 147 200 194 173 180 161 155 150 145 144 143 139 136 136 140 136 134 127 117 111 97 78 62 51 42 31 25 21 21 21 19 21 14 15 8 11 10 11 9 8 358 355 357
Wind_Speed_850mb
14 17 23 21 19 19 23 27 29 29 23 29 35 41 40 45 20 36 38 45 51 56 59 58 65 58 58 51 49 47 50 61 51 71 76 79 78 75 78 69 63 58 57 67
14 27 11 7 10 16 21 27 29 25 15 23 39 42 35 22 27 28 42 47 53 57 59 61 59 59 52 53 49 50 52 59 63 63 71 81 77 79 82 72 75 82 76 70
25 8 3 12 14 18 20 24 27 31 29 38 38 36 26 7 37 41 47 50 54 59 63 64 61 58 54 53 46 53 54 51 66 52 68 82 78 74 74 70 67 68 70 72
20 11 12 16 15 11 19 16 24 25 23 19 21 29 16 22 28 39 50 56 58 59 59 58 56 56 55 51 50 57 45 44 44 60 66 93 85 82 81 72 64 58 61 58
10 18 18 20 8 3 10 18 25 28 28 28 27 15 19 18 31 41 48 54 55 54 53 53 54 53 50 49 51 46 38 36 48 61 59 68 94 77 73 73 66 62 56 55
28 8 11 18 6 10 18 24 29 22 16 16 7 10 13 15 21 32 45 53 54 55 52 50 51 50 47 45 39 33 27 28 47 49 40 75 76 82 70 62 67 61 65 60
29 27 13 16 18 18 13 21 10 11 14 20 15 18 11 19 22 27 35 46 54 56 57 55 58 61 52 50 41 31 22 12 4 37 11 27 49 62 53 57 60 27 27 31
17 14 31 24 17 10 12 11 12 13 15 24 37 6 9 13 26 32 33 40 49 60 61 59 58 64 58 51 46 40 31 20 15 16 9 24 25 24 26 35 46 43 25 29
10 11 16 13 13 10 6 13 13 17 31 20 5 7 6 20 26 30 41 47 56 68 67 65 63 68 66 54 49 48 37 32 26 30 25 18 28 25 30 44 45 53 48 42
6 7 13 12 9 24 23 3 9 11 10 13 6 8 8 25 28 29 31 42 53 62 69 69 71 74 73 63 57 54 55 47 41 39 36 25 21 20 18 11 10 16 28 35
10 7 15 14 18 11 11 17 17 22 18 10 17 8 11 14 19 23 31 39 48 57 61 64 67 73 77 71 68 68 69 70 67 54 50 44 36 36 19 16 13 7 4 4
9 4 8 15 9 4 7 18 23 17 16 13 11 5 10 9 18 27 31 37 42 47 54 57 61 71 79 83 80 77 76 68 72 74 63 53 48 46 42 45 37 36 28 17
17 10 10 17 15 14 7 9 16 18 13 29 12 7 7 13 18 27 32 37 38 43 54 60 64 71 81 83 86 82 78 75 72 67 67 68 66 60 59 54 46 36 33 27
8 8 10 9 9 7 10 19 25 29 12 8 7 15 8 13 17 27 32 34 35 43 49 53 65 65 74 78 84 84 76 75 73 75 75 76 75 77 69 60 54 49 42 40
7 8 2 14 16 10 7 14 20 9 7 6 14 12 9 12 14 22 26 30 36 43 49 53 55 59 68 77 79 84 79 73 73 76 79 77 72 69 64 61 56 50 50 47
12 6 10 14 13 10 12 12 4 16 20 19 23 14 9 11 12 20 26 28 33 36 40 43 46 50 57 62 69 72 77 76 70 75 71 66 66 63 60 53 58 58 57 56
15 10 11 6 22 16 11 6 12 13 14 7 7 14 17 12 15 18 21 25 30 34 37 41 44 47 52 60 60 66 64 66 69 65 68 66 60 57 53 51 56 58 57 58
11 12 6 10 17 10 11 13 15 19 13 20 25 19 15 18 16 15 17 18 23 29 33 37 46 42 46 47 50 49 57 65 68 67 66 62 56 55 53 55 58 57 55 57
9 7 7 7 14 13 16 15 14 10 8 5 16 20 21 21 20 21 16 15 17 22 24 28 33 46 37 41 42 48 55 55 60 63 61 59 58 56 55 56 54 54 54 53
11 9 8 7 11 10 20 22 11 7 12 17 20 26 25 23 9 8 8 11 14 18 20 24 27 29 37 38 37 40 46 48 52 55 55 54 55 53 53 51 52 46 46 49
15 15 16 15 12 10 13 24 17 9 9 19 19 20 29 17 11 19 12 12 15 14 18 20 25 30 33 34 36 39 41 49 44 39 47 51 50 49 51 49 48 46 45 46
11 9 8 7 8 8 14 19 7 16 31 27 26 24 32 35 29 21 17 14 12 15 17 19 22 27 31 33 33 37 41 39 37 39 39 43 48 44 50 53 50 51 50 49
6 6 6 10 7 8 7 11 24 25 31 28 31 31 34 35 29 23 20 16 15 15 15 18 20 23 27 31 32 34 37 35 34 36 38 39 42 43 45 50 55 54 57 56
6 3 4 14 9 13 16 17 21 26 27 27 28 30 29 33 29 25 22 17 15 14 16 16 18 22 25 27 30 31 32 33 32 34 37 37 38 39 40 38 43 47 56 54
8 15 13 8 15 19 18 22 25 29 28 28 26 25 27 30 28 25 22 18 15 14 14 16 18 19 21 23 27 30 32 32 31 32 33 36 34 36 37 40 48 46 52 57
15 13 9 3 33 12 33 29 31 33 29 27 28 28 25 26 27 25 21 17 14 12 13 15 16 16 19 20 23 28 31 32 32 30 32 34 33 34 35 36 33 44 55 56
Wind_Direction_850mb
194 264 238 344 347 313 293 288 285 290 304 301 288 293 305 310 338 10 355 348 338 331 326 317 314 313 307 301 299 296 285 259 264 227 225 220 215 208 217 207 212 208 219 222
230 239 52 319 292 282 282 281 280 298 307 285 293 298 297 309 73 33 7 347 338 332 326 320 318 313 310 307 292 296 291 276 244 245 229 225 217 213 219 216 219 217 214 224
254 23 119 275 273 267 269 285 299 307 310 273 263 289 316 302 85 25 0 347 337 333 328 324 321 317 314 310 307 296 292 285 261 252 234 226 217 217 212 214 211 222 219 223
260 122 229 260 260 274 288 3 310 293 296 303 320 299 25 16 23 8 357 348 345 335 330 329 328 323 317 313 302 289 292 287 276 263 246 218 216 212 213 209 211 214 215 216
116 200 225 236 259 311 293 332 299 293 285 295 279 249 84 27 359 355 356 349 349 341 333 336 336 332 329 317 312 299 284 276 256 251 243 223 218 216 213 209 205 204 212 210
264 172 249 244 199 249 296 289 271 258 270 267 179 265 53 20 348 346 356 351 352 350 345 340 342 343 346 335 325 305 294 275 255 246 247 223 223 220 211 209 207 192 202 208
211 217 192 222 232 191 240 268 289 232 216 254 15 305 64 23 18 6 359 354 358 357 353 350 353 358 354 357 350 343 324 334 272 234 242 202 216 218 212 230 306 149 231 220
216 179 194 176 239 300 282 304 287 297 308 320 305 334 94 59 43 11 7 2 7 5 0 357 359 8 360 7 6 18 1 4 64 157 179 94 144 210 211 182 199 241 216 213
200 240 163 179 223 233 118 237 321 294 273 257 186 92 192 42 15 16 8 2 5 3 3 360 2 17 9 14 18 30 23 25 49 86 115 98 100 139 162 190 215 219 234 226
140 237 225 185 236 231 239 323 269 223 264 271 332 161 55 1 356 359 9 4 360 0 1 5 8 21 15 19 27 44 40 33 50 73 84 88 78 78 98 175 198 216 231 239
170 231 140 190 225 194 190 236 234 262 268 272 294 89 22 10 3 3 7 7 3 1 358 3 8 21 24 26 29 47 46 44 46 67 75 80 79 77 73 87 99 80 34 314
186 140 242 234 57 312 274 261 243 237 259 263 279 104 38 44 17 15 11 7 4 2 2 4 9 17 26 21 35 43 47 53 55 59 66 69 70 71 69 58 39 31 27 8
176 192 227 176 168 137 336 325 291 287 298 269 275 100 69 29 32 24 16 12 6 3 5 6 11 14 21 26 31 39 46 50 57 59 58 62 60 60 57 54 52 44 36 23
191 221 292 341 65 359 323 324 310 266 253 319 53 123 76 36 24 20 17 13 11 13 11 8 10 11 15 27 30 31 40 46 53 59 58 58 53 52 52 50 46 45 36 37
210 199 152 129 112 78 43 9 10 27 354 334 130 109 74 41 25 21 18 14 17 18 14 11 9 9 14 23 26 30 35 40 46 54 54 55 55 55 56 51 51 45 45 39
170 170 173 187 204 167 93 35 61 75 92 104 122 102 101 81 54 31 23 21 22 18 15 11 11 15 17 18 26 36 29 39 42 52 47 52 54 52 56 48 50 53 50 50
169 181 195 221 195 208 203 95 93 72 57 154 182 108 145 108 64 36 22 24 21 15 14 15 14 16 18 22 24 30 31 37 43 44 48 47 46 46 44 45 49 46 43 41
186 198 249 160 168 226 105 120 108 107 70 90 105 134 124 112 101 66 43 33 27 19 16 15 16 23 25 27 26 28 37 41 41 43 45 45 41 43 43 46 47 43 40 39
236 281 246 233 218 109 166 190 177 201 126 141 149 152 150 147 135 70 48 42 34 23 23 24 18 17 32 29 29 28 34 37 39 41 42 42 43 43 42 43 44 41 37 37
200 246 268 246 249 216 102 133 145 150 180 169 175 175 174 179 229 98 65 51 46 32 30 31 32 32 26 29 32 32 30 30 36 29 34 36 39 39 39 39 40 40 35 33
211 221 238 257 253 106 127 140 144 205 115 152 161 162 181 185 83 131 107 78 75 40 41 36 35 34 31 30 28 32 30 28 23 31 23 31 31 31 35 35 36 34 33 31
218 218 201 243 250 177 150 149 222 115 130 133 128 129 118 126 125 122 117 83 74 67 53 45 41 37 32 31 31 29 29 23 22 23 28 24 26 27 19 24 27 26 28 26
218 329 13 8 47 114 127 106 127 138 136 137 133 135 136 131 131 130 122 117 97 80 63 52 47 41 36 31 32 28 24 21 20 21 26 24 25 19 18 18 16 20 20 20
144 168 98 181 126 130 130 118 127 136 135 135 136 136 136 132 134 131 125 118 104 85 69 59 51 44 36 30 29 29 21 21 19 22 20 22 18 22 17 18 18 14 17 15
43 165 143 85 147 142 147 142 135 134 136 134 132 134 136 136 135 133 126 119 104 87 68 60 51 42 34 28 26 22 20 19 21 20 18 18 15 15 17 11 9 8 3 6
189 147 200 194 173 180 161 155 150 145 144 143 139 136 136 140 136 134 127 117 111 97 78 62 51 42 31 25 21 21 21 19 21 14 15 8 11 10 11 9 8 358 355 357